SCP
-0 -0 -0 -0 -0 -0 -0 -0 -0 0 0 0 0 0 0 -0 0 0 0 0 0 0 0 0 0 0 0 0 0 0 0 0 0 0 0 0 0 0 0 0 0 0 0 0 0
-0 -0 -0 -0 -0 -0 -0 -0 -0 -0 0 0 0 0 0 -0 0 0 0 0 0 0 0 0 0 0 0 0 0 0 0 0 0 0 0 0 0 0 0 0 0 0 0 0 0
-0 -0 -0 -0 -0 -0 -0 -0 -0 -0 0 0 0 0 0 0 0 0 0 0 0 0 0 0 0 0 0 0 0 0 0 0 0 0 0 0 0 0 0 0 0 0 0 0 0
0 0 -0 -0 -0 -0 -0 -0 -0 -0 0 0 0 0 0 0 0 0 0 0 0 0 0 0 0 0 0 0 0 0 0 0 0 0 0 0 0 0 0 0 0 0 0 0 0
0 0 0 -0 -0 -0 -0 -0 -0 -0 0 0 0 0 0 0 0 0 0 0 0 0 0 0 0 0 0 0 0 0 0 0 0 0 0 0 0 0 0 0 0 0 0 0 0
0 0 0 0 -0 -0 -0 -0 -0 -0 0 0 0 0 0 0 0 0 0 0 0 0 0 0 0 0 0 0 0 0 0 0 0 0 0 0 0 0 0 0 0 0 0 0 0
0 0 0 0 0 -0 -0 -0 -0 0 -0 0 0 0 0 0 0 0 0 0 0 0 0 0 0 0 0 0 0 0 0 0 0 0 0 0 0 0 0 0 0 0 0 0 0
0 0 0 0 0 0 -0 -0 0 0 -0 0 0 0 0 0 0 0 0 0 0 0 0 0 0 0 0 0 0 0 0 0 0 0 0 0 0 0 0 0 0 0 0 0 0
0 0 0 0 0 0 0 -0 0 -0 0 0 0 0 0 0 0 0 0 0 0 0 0 0 0 0 0 0 0 0 0 0 0 0 0 0 0 0 0 0 0 0 0 0 0
0 0 0 0 0 0 0 0 -0 0 0 0 0 0 0 0 0 0 0 0 0 0 0 0 0 0 0 0 0 0 0 0 0 0 0 0 0 0 0 0 0 0 0 0 0
0 0 0 0 0 0 0 -0 -0 0 0 0 0 0 0 0 0 0 0 0 0 0 0 0 0 0 0 0 0 0 0 0 0 0 0 0 0 0 0 0 0 0 0 0 0
0 0 0 0 0 0 -0 -0 -0 0 0 0 0 0 0 0 0 0 0 0 0 0 0 0 0 0 0 0 0 0 0 0 0 0 0 0 0 0 0 0 0 0 0 0 0
0 0 0 0 0 0 0 0 0 0 0 0 0 0 0 0 0 0 0 0 0 0 0 0 0 0 0 0 0 0 0 0 0 0 0 0 0 0 0 0 0 0 0 0 0
0 0 0 0 0 0 0 0 0 0 0 0 0 0 0 0 0 0 0 0 0 0 0 0 0 0 0 0 0 0 0 0 0 0 0 0 0 0 0 0 0 0 0 0 0
0 0 0 0 0 0 0 0 0 0 0 0 0 0 0 0 0 0 0 0 0 0 0 0 0 0 0 0 0 0 0 0 0 0 0 0 0 0 0 0 0 0 0 0 0
0 0 0 0 0 0 0 0 0 0 0 0 0 0 0 0 0 0 0 0 0 0 0 0 0 0 0 0 0 0 0 0 0 0 0 0 0 0 0 0 0 0 0 0 0
0 0 0 0 0 0 0 0 0 0 0 0 0 0 0 0 0 0 0 0 0 0 0 0 0 0 0 0 0 0 0 0 0 0 0 0 0 0 0 0 0 0 0 0 0
0 0 0 0 0 0 0 0 0 0 0 0 0 0 0 0 0 0 0 0 0 0 0 0 0 0 0 0 0 0 0 0 0 0 0 0 0 0 0 0 0 0 0 0 0
0 0 0 0 0 0 0 0 0 0 0 0 0 0 0 0 0 0 0 0 0 0 0 0 0 0 0 0 0 0 0 0 0 0 0 0 0 0 0 0 0 0 0 0 0
0 0 0 0 0 0 0 0 0 0 0 0 0 0 0 0 0 0 0 0 0 0 0 0 0 0 0 0 0 0 0 0 0 0 0 0 0 0 0 0 0 0 0 0 0
0 0 0 0 0 0 0 0 0 0 0 0 0 0 0 0 0 0 0 0 0 0 0 0 0 0 0 0 0 0 0 0 0 0 0 0 0 0 0 0 0 0 0 0 0
0 0 0 0 0 0 0 0 0 0 0 0 0 0 0 0 0 0 0 0 0 0 0 0 0 0 0 0 0 0 0 0 0 0 0 0 0 0 0 0 0 0 0 0 0
0 0 0 0 0 0 0 0 0 0 0 0 0 0 0 0 0 0 0 0 0 0 0 0 0 0 0 0 0 0 0 0 0 0 0 0 0 0 0 0 0 0 0 0 0
0 0 0 0 0 0 0 0 0 0 0 0 0 0 0 0 0 0 0 0 0 0 0 0 0 0 0 0 0 0 0 0 0 0 0 0 0 0 0 0 0 0 0 0 0
0 0 0 0 0 0 0 0 0 0 0 0 0 0 0 0 0 0 0 0 0 0 0 0 0 0 0 0 0 0 0 0 0 0 0 0 0 0 0 0 0 0 0 0 0
0 0 0 0 0 0 0 0 0 0 0 0 0 0 0 0 0 0 0 0 0 0 0 0 0 0 0 0 0 0 0 0 0 0 0 0 0 0 0 0 0 0 0 0 0
0 0 0 0 0 0 0 0 0 0 0 0 0 0 0 0 0 0 0 0 0 0 0 0 0 0 0 0 0 0 0 0 0 0 0 0 0 0 0 0 0 0 0 0 0
Wind_Speed_500mb
25 28 32 35 38 40 42 44 46 49 50 53 53 37 15 22 35 27 30 24 19 17 13 10 9 13 6 8 7 2 7 5 6 7 7 9 6 32 32 44 43 25 27 23 7
25 27 29 31 35 37 39 41 43 47 49 51 47 38 8 8 18 30 26 23 21 22 21 19 17 10 2 2 6 8 6 0 3 4 5 5 10 15 12 34 36 47 29 10 10
26 28 29 30 32 34 36 38 41 44 47 49 44 37 9 1 6 16 21 21 21 23 24 20 17 13 7 0 2 4 4 2 8 16 9 4 12 5 36 8 10 36 33 22 19
27 28 30 31 32 33 35 36 38 41 44 49 41 31 7 5 3 6 13 21 18 20 23 16 16 5 4 3 3 2 7 4 5 13 6 3 9 13 5 22 31 31 27 21 21
26 28 30 32 33 33 34 35 37 39 42 46 40 24 2 2 4 3 4 13 20 21 18 20 20 11 4 6 3 7 6 3 5 7 6 2 15 21 38 38 29 28 20 18 18
25 27 31 33 34 34 33 35 36 37 40 42 35 19 3 3 5 1 2 2 15 22 23 18 14 12 9 5 5 3 4 11 3 10 9 7 19 18 32 36 29 22 24 20 19
27 29 30 34 37 37 36 36 38 38 37 38 29 12 6 10 8 4 4 2 12 18 23 16 15 10 10 9 1 1 5 7 10 11 8 6 6 13 51 38 39 34 29 24 22
28 30 31 33 38 40 40 39 40 37 37 25 22 8 6 10 12 6 6 6 12 15 22 13 17 11 3 11 6 0 5 3 8 17 9 5 12 10 58 53 43 35 27 23 17
30 31 33 34 37 41 43 43 41 38 25 15 13 9 6 9 15 14 8 9 15 12 19 10 14 5 2 4 8 5 6 6 3 21 6 7 11 26 57 52 45 36 28 20 13
31 32 32 33 35 41 44 46 37 23 3 14 5 6 8 8 11 14 14 10 9 15 12 9 1 5 8 6 7 7 9 8 9 8 13 14 15 12 53 51 45 37 29 20 15
34 32 31 31 33 38 44 45 34 7 33 20 30 29 33 31 19 14 10 7 5 7 6 10 6 9 8 1 3 7 9 13 13 12 15 15 14 22 39 42 43 39 32 23 14
36 33 31 28 29 29 29 20 17 17 25 39 35 34 31 19 7 10 7 5 4 0 7 12 10 11 12 10 10 11 13 16 17 6 2 12 19 12 40 39 51 43 31 23 14
34 33 29 25 23 20 20 20 23 26 12 12 8 7 5 13 6 11 5 3 4 5 3 8 8 8 6 5 7 10 12 10 14 11 12 14 16 13 13 26 44 37 29 20 10
33 32 29 22 18 9 13 17 22 27 8 11 4 4 7 7 4 10 5 3 3 2 2 10 6 7 5 10 12 11 4 3 9 8 8 4 16 8 18 20 24 41 34 22 13
37 32 28 18 13 12 11 12 18 11 9 6 5 5 7 6 2 3 3 2 6 9 10 18 8 10 8 9 8 10 3 9 10 17 5 11 9 10 26 24 24 28 28 19 10
41 33 28 21 18 13 10 9 12 9 14 7 8 7 3 6 5 5 2 2 2 1 6 14 1 9 12 5 6 5 6 11 7 4 8 18 22 9 15 29 28 28 30 21 9
43 37 30 26 17 13 9 5 8 8 7 9 9 9 6 9 7 9 5 1 3 10 7 10 9 3 5 3 5 4 6 8 10 3 14 3 3 27 13 15 36 31 36 22 9
42 36 32 30 25 21 16 7 11 13 15 3 6 6 12 14 9 7 8 5 10 6 2 7 12 11 8 7 12 11 12 9 13 8 13 13 15 10 5 35 51 41 34 22 6
41 32 39 31 30 27 23 8 20 17 10 16 5 7 8 8 6 8 13 12 14 17 16 5 11 4 8 3 5 6 9 3 4 3 4 9 10 7 6 16 26 35 31 18 7
33 28 42 34 30 32 6 28 16 18 11 8 18 17 15 12 12 13 14 11 10 11 10 7 14 0 3 3 5 4 7 4 2 7 13 12 15 17 24 28 17 18 23 10 9
29 16 19 35 37 27 18 18 23 35 18 15 16 13 13 13 18 14 14 7 11 8 12 10 10 4 8 14 18 3 7 7 5 9 9 5 14 9 35 33 23 20 25 15 11
27 8 25 47 19 15 26 17 20 23 73 33 15 20 20 14 13 16 23 20 33 28 19 14 9 10 23 7 4 6 19 20 10 13 8 14 36 15 27 26 33 32 28 16 10
21 34 23 57 16 21 9 19 41 15 22 13 17 19 16 17 12 22 20 4 41 22 20 17 7 5 15 8 7 12 10 11 5 1 37 18 19 3 16 20 35 39 28 19 9
21 9 26 56 41 14 22 30 29 35 52 22 14 18 10 13 20 10 15 5 15 9 20 25 11 19 36 39 6 16 16 19 27 19 46 52 69 24 14 23 24 30 26 17 7
45 18 31 14 31 36 23 12 38 26 27 60 22 39 25 21 15 24 12 3 3 17 15 14 18 14 36 29 13 43 30 32 38 54 36 77 50 52 37 34 30 29 17 4 20
46 18 28 13 38 44 56 58 51 18 27 41 43 28 47 52 38 20 27 16 17 9 14 8 12 7 33 18 32 54 38 41 55 62 60 66 74 60 52 18 29 23 10 8 21
79 61 57 35 25 25 44 56 56 46 42 45 46 40 35 41 55 54 40 22 19 26 27 21 12 9 30 2 10 30 45 59 45 49 48 49 69 46 31 16 25 22 3 14 21
Wind_Direction_500mb
11 12 13 12 12 11 11 12 9 10 12 14 14 20 57 61 54 58 54 47 48 42 41 43 39 24 18 24 31 59 67 326 9 70 122 61 108 76 93 92 75 86 98 101 40
2 2 6 7 6 4 5 6 4 5 4 7 7 10 14 35 43 43 44 38 35 30 28 28 30 35 347 353 15 65 92 321 31 66 129 92 123 123 103 100 98 95 97 91 31
353 354 356 360 1 359 358 359 0 360 357 0 1 4 20 73 55 30 40 35 36 36 32 39 26 360 333 162 12 3 202 36 68 95 74 66 65 102 124 58 135 127 110 86 56
343 346 348 351 353 354 352 352 354 355 353 351 356 1 41 31 123 43 53 44 40 29 28 29 14 1 324 179 151 12 273 60 37 47 85 56 90 87 121 127 135 127 118 103 66
331 337 339 342 346 348 348 345 346 348 347 345 349 357 293 51 124 84 78 42 34 30 27 24 19 348 343 339 331 175 240 270 334 59 100 19 153 132 123 143 144 125 111 88 60
321 325 330 333 337 341 343 341 339 340 338 338 340 346 263 255 228 205 349 329 18 22 21 11 1 327 283 261 141 294 287 281 261 164 184 147 134 111 167 148 128 118 101 85 64
314 317 321 326 330 333 336 338 336 334 330 327 331 319 276 264 220 224 7 2 6 4 5 355 349 318 322 324 299 158 344 16 201 198 226 206 256 185 161 153 135 128 121 106 83
303 309 314 320 324 327 331 333 332 330 324 317 325 300 262 253 221 239 339 5 350 354 354 344 335 312 249 313 323 149 135 156 244 168 236 140 274 148 159 152 146 141 135 125 89
296 302 310 318 323 325 328 331 333 324 316 310 310 283 249 240 237 251 292 340 343 351 342 335 325 359 354 51 357 356 267 258 294 207 160 164 249 172 172 161 152 147 141 136 100
292 298 307 315 323 325 330 334 336 322 332 338 283 293 242 230 254 259 278 317 347 358 340 333 39 48 15 77 248 274 299 295 266 230 202 202 241 177 178 165 159 151 145 137 111
294 297 304 313 324 331 335 349 3 320 316 275 281 260 272 272 259 253 263 315 54 38 8 297 65 261 210 138 256 262 260 251 262 247 202 227 238 190 181 169 164 163 155 146 109
291 295 300 310 321 333 344 18 9 320 302 289 271 266 264 256 244 220 245 196 104 299 337 12 250 195 173 207 226 232 261 271 286 167 313 259 249 238 184 182 171 165 163 151 124
282 288 294 304 315 321 351 360 346 343 301 294 257 244 241 205 213 214 218 176 141 159 141 174 224 174 182 206 232 246 228 253 256 332 297 281 274 189 191 171 176 170 167 138 120
276 281 286 295 304 315 335 339 335 343 41 270 235 212 182 189 251 207 172 138 220 272 189 236 210 167 197 244 176 261 163 225 282 354 242 118 288 213 179 182 183 180 165 148 131
271 272 277 277 264 289 304 316 321 349 356 256 192 180 193 181 145 192 190 43 182 197 101 248 196 212 229 229 151 241 52 249 249 246 359 233 251 255 167 204 195 175 159 145 145
263 261 261 262 258 258 260 282 316 54 248 225 158 183 142 201 211 167 189 334 288 23 237 243 33 175 206 139 186 14 309 262 215 169 256 232 203 228 182 216 175 169 156 152 161
260 257 250 243 238 229 220 231 38 162 278 207 204 174 181 197 211 178 167 239 189 338 304 336 218 100 135 133 20 79 50 320 339 331 238 182 284 246 212 188 171 159 156 158 169
256 260 247 238 227 223 208 68 194 225 244 130 141 144 191 165 217 148 126 254 244 172 328 228 300 177 173 193 186 192 165 169 263 240 276 324 254 240 147 127 137 143 150 156 186
247 247 254 231 225 214 189 195 196 201 215 159 84 182 236 217 190 148 206 213 215 168 186 249 256 95 41 10 143 178 182 162 287 105 5 240 278 340 131 139 142 147 155 165 193
234 239 248 233 217 208 164 225 218 218 142 154 185 181 205 202 175 181 193 203 204 188 163 199 290 93 164 68 317 218 171 85 72 287 273 266 260 232 190 197 181 168 162 177 314
216 247 230 220 207 191 212 219 225 225 160 176 205 228 219 188 192 197 223 248 163 126 117 149 172 201 128 199 187 143 227 229 188 174 235 281 255 234 192 189 183 181 170 195 254
206 231 206 190 179 208 222 201 228 207 233 243 203 216 223 176 240 230 224 203 172 152 161 204 169 231 224 208 228 179 202 189 209 222 240 256 272 174 185 182 166 168 180 200 248
211 225 207 188 215 221 241 220 232 177 213 203 218 211 189 195 246 222 214 143 164 153 170 181 211 340 298 6 342 226 205 212 266 277 240 247 262 157 143 151 169 172 188 193 252
201 218 193 201 225 225 221 239 224 219 229 225 220 182 162 216 223 247 199 214 189 143 159 164 203 202 254 269 128 238 188 204 217 245 253 241 259 234 200 177 177 181 188 193 307
206 225 195 201 215 224 216 230 219 224 213 205 232 219 199 226 194 226 200 143 257 175 168 166 240 195 256 273 282 266 253 227 221 236 234 258 248 259 251 246 233 183 166 350 342
205 193 178 217 201 204 222 231 233 222 199 217 224 201 215 228 215 212 214 182 198 169 163 178 251 159 273 237 245 260 250 246 241 245 244 252 267 261 274 189 161 166 157 344 339
217 222 216 220 200 196 215 226 227 215 245 235 215 225 224 226 228 242 228 208 202 165 183 168 186 159 261 107 323 274 238 229 241 240 230 243 247 275 257 189 171 158 161 342 336
Wind_Speed_850mb
25 28 32 35 38 40 42 44 46 49 50 53 53 37 15 22 35 27 30 24 19 17 13 10 9 13 6 8 7 2 7 5 6 7 7 9 6 32 32 44 43 25 27 23 7
25 27 29 31 35 37 39 41 43 47 49 51 47 38 8 8 18 30 26 23 21 22 21 19 17 10 2 2 6 8 6 0 3 4 5 5 10 15 12 34 36 47 29 10 10
26 28 29 30 32 34 36 38 41 44 47 49 44 37 9 1 6 16 21 21 21 23 24 20 17 13 7 0 2 4 4 2 8 16 9 4 12 5 36 8 10 36 33 22 19
27 28 30 31 32 33 35 36 38 41 44 49 41 31 7 5 3 6 13 21 18 20 23 16 16 5 4 3 3 2 7 4 5 13 6 3 9 13 5 22 31 31 27 21 21
26 28 30 32 33 33 34 35 37 39 42 46 40 24 2 2 4 3 4 13 20 21 18 20 20 11 4 6 3 7 6 3 5 7 6 2 15 21 38 38 29 28 20 18 18
25 27 31 33 34 34 33 35 36 37 40 42 35 19 3 3 5 1 2 2 15 22 23 18 14 12 9 5 5 3 4 11 3 10 9 7 19 18 32 36 29 22 24 20 19
27 29 30 34 37 37 36 36 38 38 37 38 29 12 6 10 8 4 4 2 12 18 23 16 15 10 10 9 1 1 5 7 10 11 8 6 6 13 51 38 39 34 29 24 22
28 30 31 33 38 40 40 39 40 37 37 25 22 8 6 10 12 6 6 6 12 15 22 13 17 11 3 11 6 0 5 3 8 17 9 5 12 10 58 53 43 35 27 23 17
30 31 33 34 37 41 43 43 41 38 25 15 13 9 6 9 15 14 8 9 15 12 19 10 14 5 2 4 8 5 6 6 3 21 6 7 11 26 57 52 45 36 28 20 13
31 32 32 33 35 41 44 46 37 23 3 14 5 6 8 8 11 14 14 10 9 15 12 9 1 5 8 6 7 7 9 8 9 8 13 14 15 12 53 51 45 37 29 20 15
34 32 31 31 33 38 44 45 34 7 33 20 30 29 33 31 19 14 10 7 5 7 6 10 6 9 8 1 3 7 9 13 13 12 15 15 14 22 39 42 43 39 32 23 14
36 33 31 28 29 29 29 20 17 17 25 39 35 34 31 19 7 10 7 5 4 0 7 12 10 11 12 10 10 11 13 16 17 6 2 12 19 12 40 39 51 43 31 23 14
34 33 29 25 23 20 20 20 23 26 12 12 8 7 5 13 6 11 5 3 4 5 3 8 8 8 6 5 7 10 12 10 14 11 12 14 16 13 13 26 44 37 29 20 10
33 32 29 22 18 9 13 17 22 27 8 11 4 4 7 7 4 10 5 3 3 2 2 10 6 7 5 10 12 11 4 3 9 8 8 4 16 8 18 20 24 41 34 22 13
37 32 28 18 13 12 11 12 18 11 9 6 5 5 7 6 2 3 3 2 6 9 10 18 8 10 8 9 8 10 3 9 10 17 5 11 9 10 26 24 24 28 28 19 10
41 33 28 21 18 13 10 9 12 9 14 7 8 7 3 6 5 5 2 2 2 1 6 14 1 9 12 5 6 5 6 11 7 4 8 18 22 9 15 29 28 28 30 21 9
43 37 30 26 17 13 9 5 8 8 7 9 9 9 6 9 7 9 5 1 3 10 7 10 9 3 5 3 5 4 6 8 10 3 14 3 3 27 13 15 36 31 36 22 9
42 36 32 30 25 21 16 7 11 13 15 3 6 6 12 14 9 7 8 5 10 6 2 7 12 11 8 7 12 11 12 9 13 8 13 13 15 10 5 35 51 41 34 22 6
41 32 39 31 30 27 23 8 20 17 10 16 5 7 8 8 6 8 13 12 14 17 16 5 11 4 8 3 5 6 9 3 4 3 4 9 10 7 6 16 26 35 31 18 7
33 28 42 34 30 32 6 28 16 18 11 8 18 17 15 12 12 13 14 11 10 11 10 7 14 0 3 3 5 4 7 4 2 7 13 12 15 17 24 28 17 18 23 10 9
29 16 19 35 37 27 18 18 23 35 18 15 16 13 13 13 18 14 14 7 11 8 12 10 10 4 8 14 18 3 7 7 5 9 9 5 14 9 35 33 23 20 25 15 11
27 8 25 47 19 15 26 17 20 23 73 33 15 20 20 14 13 16 23 20 33 28 19 14 9 10 23 7 4 6 19 20 10 13 8 14 36 15 27 26 33 32 28 16 10
21 34 23 57 16 21 9 19 41 15 22 13 17 19 16 17 12 22 20 4 41 22 20 17 7 5 15 8 7 12 10 11 5 1 37 18 19 3 16 20 35 39 28 19 9
21 9 26 56 41 14 22 30 29 35 52 22 14 18 10 13 20 10 15 5 15 9 20 25 11 19 36 39 6 16 16 19 27 19 46 52 69 24 14 23 24 30 26 17 7
45 18 31 14 31 36 23 12 38 26 27 60 22 39 25 21 15 24 12 3 3 17 15 14 18 14 36 29 13 43 30 32 38 54 36 77 50 52 37 34 30 29 17 4 20
46 18 28 13 38 44 56 58 51 18 27 41 43 28 47 52 38 20 27 16 17 9 14 8 12 7 33 18 32 54 38 41 55 62 60 66 74 60 52 18 29 23 10 8 21
79 61 57 35 25 25 44 56 56 46 42 45 46 40 35 41 55 54 40 22 19 26 27 21 12 9 30 2 10 30 45 59 45 49 48 49 69 46 31 16 25 22 3 14 21
Wind_Direction_850mb
11 12 13 12 12 11 11 12 9 10 12 14 14 20 57 61 54 58 54 47 48 42 41 43 39 24 18 24 31 59 67 326 9 70 122 61 108 76 93 92 75 86 98 101 40
2 2 6 7 6 4 5 6 4 5 4 7 7 10 14 35 43 43 44 38 35 30 28 28 30 35 347 353 15 65 92 321 31 66 129 92 123 123 103 100 98 95 97 91 31
353 354 356 360 1 359 358 359 0 360 357 0 1 4 20 73 55 30 40 35 36 36 32 39 26 360 333 162 12 3 202 36 68 95 74 66 65 102 124 58 135 127 110 86 56
343 346 348 351 353 354 352 352 354 355 353 351 356 1 41 31 123 43 53 44 40 29 28 29 14 1 324 179 151 12 273 60 37 47 85 56 90 87 121 127 135 127 118 103 66
331 337 339 342 346 348 348 345 346 348 347 345 349 357 293 51 124 84 78 42 34 30 27 24 19 348 343 339 331 175 240 270 334 59 100 19 153 132 123 143 144 125 111 88 60
321 325 330 333 337 341 343 341 339 340 338 338 340 346 263 255 228 205 349 329 18 22 21 11 1 327 283 261 141 294 287 281 261 164 184 147 134 111 167 148 128 118 101 85 64
314 317 321 326 330 333 336 338 336 334 330 327 331 319 276 264 220 224 7 2 6 4 5 355 349 318 322 324 299 158 344 16 201 198 226 206 256 185 161 153 135 128 121 106 83
303 309 314 320 324 327 331 333 332 330 324 317 325 300 262 253 221 239 339 5 350 354 354 344 335 312 249 313 323 149 135 156 244 168 236 140 274 148 159 152 146 141 135 125 89
296 302 310 318 323 325 328 331 333 324 316 310 310 283 249 240 237 251 292 340 343 351 342 335 325 359 354 51 357 356 267 258 294 207 160 164 249 172 172 161 152 147 141 136 100
292 298 307 315 323 325 330 334 336 322 332 338 283 293 242 230 254 259 278 317 347 358 340 333 39 48 15 77 248 274 299 295 266 230 202 202 241 177 178 165 159 151 145 137 111
294 297 304 313 324 331 335 349 3 320 316 275 281 260 272 272 259 253 263 315 54 38 8 297 65 261 210 138 256 262 260 251 262 247 202 227 238 190 181 169 164 163 155 146 109
291 295 300 310 321 333 344 18 9 320 302 289 271 266 264 256 244 220 245 196 104 299 337 12 250 195 173 207 226 232 261 271 286 167 313 259 249 238 184 182 171 165 163 151 124
282 288 294 304 315 321 351 360 346 343 301 294 257 244 241 205 213 214 218 176 141 159 141 174 224 174 182 206 232 246 228 253 256 332 297 281 274 189 191 171 176 170 167 138 120
276 281 286 295 304 315 335 339 335 343 41 270 235 212 182 189 251 207 172 138 220 272 189 236 210 167 197 244 176 261 163 225 282 354 242 118 288 213 179 182 183 180 165 148 131
271 272 277 277 264 289 304 316 321 349 356 256 192 180 193 181 145 192 190 43 182 197 101 248 196 212 229 229 151 241 52 249 249 246 359 233 251 255 167 204 195 175 159 145 145
263 261 261 262 258 258 260 282 316 54 248 225 158 183 142 201 211 167 189 334 288 23 237 243 33 175 206 139 186 14 309 262 215 169 256 232 203 228 182 216 175 169 156 152 161
260 257 250 243 238 229 220 231 38 162 278 207 204 174 181 197 211 178 167 239 189 338 304 336 218 100 135 133 20 79 50 320 339 331 238 182 284 246 212 188 171 159 156 158 169
256 260 247 238 227 223 208 68 194 225 244 130 141 144 191 165 217 148 126 254 244 172 328 228 300 177 173 193 186 192 165 169 263 240 276 324 254 240 147 127 137 143 150 156 186
247 247 254 231 225 214 189 195 196 201 215 159 84 182 236 217 190 148 206 213 215 168 186 249 256 95 41 10 143 178 182 162 287 105 5 240 278 340 131 139 142 147 155 165 193
234 239 248 233 217 208 164 225 218 218 142 154 185 181 205 202 175 181 193 203 204 188 163 199 290 93 164 68 317 218 171 85 72 287 273 266 260 232 190 197 181 168 162 177 314
216 247 230 220 207 191 212 219 225 225 160 176 205 228 219 188 192 197 223 248 163 126 117 149 172 201 128 199 187 143 227 229 188 174 235 281 255 234 192 189 183 181 170 195 254
206 231 206 190 179 208 222 201 228 207 233 243 203 216 223 176 240 230 224 203 172 152 161 204 169 231 224 208 228 179 202 189 209 222 240 256 272 174 185 182 166 168 180 200 248
211 225 207 188 215 221 241 220 232 177 213 203 218 211 189 195 246 222 214 143 164 153 170 181 211 340 298 6 342 226 205 212 266 277 240 247 262 157 143 151 169 172 188 193 252
201 218 193 201 225 225 221 239 224 219 229 225 220 182 162 216 223 247 199 214 189 143 159 164 203 202 254 269 128 238 188 204 217 245 253 241 259 234 200 177 177 181 188 193 307
206 225 195 201 215 224 216 230 219 224 213 205 232 219 199 226 194 226 200 143 257 175 168 166 240 195 256 273 282 266 253 227 221 236 234 258 248 259 251 246 233 183 166 350 342
205 193 178 217 201 204 222 231 233 222 199 217 224 201 215 228 215 212 214 182 198 169 163 178 251 159 273 237 245 260 250 246 241 245 244 252 267 261 274 189 161 166 157 344 339
217 222 216 220 200 196 215 226 227 215 245 235 215 225 224 226 228 242 228 208 202 165 183 168 186 159 261 107 323 274 238 229 241 240 230 243 247 275 257 189 171 158 161 342 336